Regional Weather Roundup
Issued by NWS Bismarck, ND

Home | Current Version | Previous Version | Text Only | Print | Product List | Glossary On
Versions: 1 2 3 4 5 6 7 8 9 10 11 12 13 14 15 16 17 18 19 20 21 22 23 24 25 26 27 28 29 30 31 32 33 34 35 36 37 38 39 40 41 42 43 44 45 46 47 48 49 50
000
ASUS43 KBIS 251510
RWRBIS

NWR BROADCAST TEXT
NATIONAL WEATHER SERVICE BISMARCK ND
1000 AM CDT WED MAY 25 2016

NOTE: "FAIR" INDICATES FEW OR NO CLOUDS BELOW 12,000 FEET WITH NO
SIGNIFICANT WEATHER AND/OR OBSTRUCTIONS TO VISIBILITY.


CITY           SKY/WX    TMP DP  RH WIND       PRES   REMARKS
WILLISTON      RAIN      52  49  89 NW10      29.83S FOG
MINOT          LGT RAIN  58  55  90 NE8       29.83R
MINOT AFB      LGT RAIN  57  56  94 NE10      29.83R
BISMARCK       LGT RAIN  61  57  87 CALM      29.80F
DICKINSON      CLOUDY    57  51  80 SW10      29.80F
GARRISON         N/A     58  55  90 E8        29.81S
HETTINGER ARPT CLOUDY    59  49  69 S8        29.83F
JAMESTOWN      NOT AVBL
BEACH          CLOUDY    48  48 100 NW20      29.87S
CARRINGTON     TSTM      59  55  88 W9        29.84R
HAZEN          CLOUDY    57  55  94 E3        29.83S
LINTON           N/A     59  59 100 E9          N/A
MANDAN         CLOUDY    59  57  94 NE3       29.81F
OAKES            N/A    N/A N/A N/A MISG        N/A
RUGBY          LGT RAIN  57  55  94 CALM      29.87R
STANLEY        CLOUDY    55  55 100 VRB3      29.85S
WATFORD CITY   CLOUDY    55  54  94 NE5       29.81F
$$

CITY           SKY/WX    TMP DP  RH WIND       PRES   REMARKS
GRAND FORKS    CLOUDY    67  55  65 E12       29.80F
GRAND FORKS AF CLOUDY    66  55  67 E7        29.80F
DEVILS LAKE    NOT AVBL
FARGO          LGT RAIN  68  56  65 SE13      29.76F
CANDO          PTSUNNY   61  55  82 S8        29.88R
CAVALIER       FAIR      66  55  68 E7        29.84F
GRAFTON        FAIR      68  57  68 E7        29.84F
GWINNER        FAIR      63  61  94 NE5       29.78F
LANGDON        FAIR      66  54  63 E9        29.85F
ROLLA          FAIR      57  50  77 N12       29.86F
WALHALLA       FAIR      64  59  82 CALM      29.86F
$$

CITY           SKY/WX    TMP DP  RH WIND       PRES   REMARKS
ABERDEEN       CLOUDY    62  58  86 N13       29.74F
MOBRIDGE       CLOUDY    65  55  70 SE6       29.76S
BUFFALO          N/A     57  50  77 W17       29.77F
RAPID CITY     SUNNY     60  51  72 S7        29.83F
GLASGOW        CLOUDY    51  45  79 E3        29.88S
SIDNEY         LGT RAIN  51  49  92 NW17G25   29.85F
WOLF POINT     CLOUDY    53  48  83 CALM      29.89S
GLENDIVE       CLOUDY    50  46  87 N13       29.89S
MILES CITY     CLOUDY    52  49  89 S3        29.88S
BAKER          CLOUDY    50  46  86 NW17G23   29.87R
$$

CITY           SKY/WX    TMP DP  RH WIND       PRES   REMARKS
BILLINGS       MOSUNNY   54  44  69 CALM      29.92S
GREAT FALLS    SUNNY     53  41  63 SW16      29.90S
REGINA         CLOUDY    50  43  76 SE5       29.91R
ESTEVAN        CLOUDY    55  45  67 E10       29.85S
$$





USA.gov is the U.S. government's official web portal to all federal, state and local government web resources and services.